[[{"header":{"parameterUnit":"m.s-1","parameterCategory":1,"la1":30.2991,"la2":30.254,"lo1":-89.0895,"lo2":-89.0444,"dy":0.0017,"dx":0.0017,"nx":28,"ny":28,"refTime":"2024-11-24T09:00:00:Z","depth":0,"parameterNumber":2,"parameterNumberName":"U-component_of_WINDS"},"data":[0,0,0,0,0,0,0,0,0,0,0,0,0,0,0,0,0,0,0,0,0,0,0,0,0,0,0,0,0,0,0,0,0,0,0,0,0,0,0,0,0,0,0,0,0,0,0,0,0,0,0,0,0,0,0,0,0,0,0.309,0.3089,0,0.3075,0.3075,0.3075,0.3022,0.3021,0.302,0.3019,0.3005,0.3005,0.3006,0,0,0,0,0,0,0,0,0,0,0,0,0,0.3072,0.3073,0.309,0.3089,0.3089,0.3075,0.3075,0.3075,0.3022,0.3021,0.302,0.3018,0.3004,0.3005,0.3006,0,0,0,0,0,0,0,0,0,0,0,0,0,0.3071,0.3073,0.309,0.3061,0.3059,0.3075,0.3075,0.3075,0.3023,0.3021,0.3019,0.3017,0.3004,0.3005,0.3006,0.3049,0,0,0.301,0.301,0,0,0,0,0,0,0,0,0.3071,0.3072,0.3066,0.3063,0.306,0.3049,0.3064,0.3066,0.3023,0.3036,0.3019,0.3017,0.3021,0.302,0.3022,0.3048,0.3048,0.301,0.301,0.3011,0.3011,0,0,0,0,0,0,0,0.3071,0.3072,0.3084,0.3066,0.3062,0.305,0.3047,0.3064,0.3039,0.3035,0.3031,0.303,0.3019,0.3021,0.3021,0.3048,0.301,0.3011,0.3011,0.3012,0.3109,0.3111,0,0,0,0,0,0,0.3075,0.3072,0.3084,0.3083,0.3061,0.3051,0.3049,0.3054,0.3039,0.3034,0.3032,0.3028,0.302,0.302,0.302,0.3069,0.3011,0.3012,0.3012,0.3107,0.3109,0.3111,0,0,0,0,0,0,0.3075,0.3077,0.3085,0.3077,0.3077,0.3054,0.306,0.3055,0.3057,0.3036,0.3031,0.3038,0.3018,0.3019,0.3042,0.3068,0.3012,0.3013,0.3105,0.3108,0.311,0.3169,0,0,0,0,0,0,0.3075,0.3077,0.3093,0.3078,0.3078,0.3107,0.3062,0.3056,0.3059,0.3053,0.3041,0.3037,0.3017,0.3041,0.3043,0.3069,0.3014,0.3102,0.3106,0.3109,0.3164,0.3173,0.3181,0,0,0,0,0,0.3074,0.311,0.3094,0.3096,0.3097,0.3109,0.3109,0.3085,0.3061,0.3077,0.3064,0.3037,0.3065,0.3044,0.3046,0.3072,0.3101,0.3105,0.3109,0.3161,0.3171,0.318,0,0,0,0,0,0,0.3129,0.3107,0.309,0.3121,0.3117,0.31,0.3119,0.3097,0.31,0.3095,0.3065,0.3063,0.3091,0.3084,0.306,0.3113,0.3078,0.3083,0.3117,0.3127,0.3135,0.3136,0.3015,0,0,0,0,0,0.3145,0.3156,0.3137,0.3167,0.3166,0.3143,0.3147,0.3129,0.3124,0.3122,0.311,0.3107,0.3114,0.312,0.3126,0.3163,0.3159,0.3182,0.319,0.3197,0.3202,0.3221,0.3231,0.3126,0.3126,0.3125,0,0,0.3178,0.3167,0.3176,0.3177,0.3172,0.3185,0.3142,0.3157,0.3166,0.3124,0.3146,0.3137,0.3131,0.3162,0.3174,0.3157,0.323,0.3203,0.3208,0.3209,0.3227,0.3237,0.3245,0.3129,0.3128,0.3128,0,0,0.3244,0.3237,0.3261,0.3257,0.325,0.3234,0.324,0.3226,0.3219,0.324,0.3209,0.322,0.3234,0.323,0.3231,0.3296,0.3272,0.3299,0.3342,0.3361,0.3369,0.3376,0.34,0.3409,0.3303,0.3303,0.3304,0,0.3286,0.3303,0.3277,0.3294,0.3295,0.3258,0.3282,0.3279,0.3275,0.3277,0.3257,0.3273,0.3267,0.3296,0.3312,0.3313,0.3319,0.33,0.337,0.3377,0.3383,0.3405,0.3414,0.3307,0.3306,0.3306,0.3306,0,0.3355,0.3368,0.3388,0.3384,0.3388,0.3409,0.3386,0.3393,0.3374,0.3361,0.3384,0.3374,0.3377,0.3383,0.3365,0.341,0.3399,0.3375,0.334,0.3397,0.3417,0.3426,0.3312,0.331,0.3309,0.3309,0,0,0.3455,0.3437,0.3445,0.3442,0.3432,0.3441,0.346,0.3464,0.347,0.3468,0.3484,0.3497,0.3474,0.3475,0.3456,0.3473,0.3526,0.3446,0.3446,0.3462,0.3575,0.3593,0.3604,0.3509,0.3511,0.3512,0.3575,0,0.3518,0.355,0.3527,0.3562,0.3574,0.3539,0.3555,0.3551,0.3539,0.3548,0.3535,0.3544,0.3514,0.3514,0.3529,0.3516,0.3548,0.3511,0.3524,0.3525,0.3527,0.3614,0.3634,0.3694,0.3583,0.3585,0.3585,0,0.3596,0.3598,0.3635,0.3621,0.3625,0.3641,0.3642,0.365,0.3645,0.3635,0.3636,0.3613,0.3631,0.3596,0.3621,0.3596,0.36,0.3595,0.3597,0.3597,0.3559,0.3617,0.3712,0.3722,0.3598,0.3597,0.3596,0,0.3666,0.3677,0.37,0.37,0.3685,0.3697,0.3691,0.3684,0.3687,0.3689,0.3691,0.3694,0.3696,0.3699,0.3678,0.3655,0.3706,0.3669,0.3699,0.3699,0.3711,0.3711,0.3809,0.3714,0.3713,0.3713,0.3713,0,0.3739,0.3763,0.3732,0.3746,0.3772,0.3745,0.3772,0.3763,0.3756,0.3769,0.3738,0.3751,0.3722,0.3731,0.3715,0.3738,0.3739,0.3732,0.3727,0.3735,0.3736,0.3737,0.3732,0.3716,0.3715,0.3715,0.3714,0,0.3821,0.3801,0.3824,0.3809,0.3805,0.3825,0.3812,0.3825,0.3811,0.3827,0.383,0.3808,0.3818,0.3797,0.3804,0.3793,0.3826,0.3814,0.3828,0.3825,0.3855,0.3853,0.3957,0.397,0.3867,0.3868,0.3869,0,0.3869,0.3886,0.3873,0.3879,0.3875,0.3885,0.3889,0.3863,0.3868,0.3863,0.3877,0.3884,0.3888,0.3905,0.389,0.3895,0.3884,0.392,0.3884,0.3891,0.3885,0.3884,0.3886,0.3928,0.3929,0.393,0.3931,0,0.3956,0.3945,0.3951,0.3954,0.3959,0.3961,0.396,0.3966,0.3939,0.3946,0.3956,0.3959,0.3966,0.3973,0.3975,0.3969,0.3946,0.3942,0.3949,0.3957,0.3964,0.3961,0.3848,0.394,0.3939,0.3938,0.3938,0.3937,0.4022,0.4036,0.4029,0.4037,0.4034,0.4034,0.4045,0.4033,0.404,0.4044,0.4028,0.4041,0.4035,0.4035,0.4032,0.4042,0.4026,0.4036,0.4039,0.4042,0.4047,0.3963,0.4042,0.4042,0.4042,0.4041,0.4041,0,0.4108,0.4101,0.4109,0.4109,0.4115,0.4092,0.409,0.4097,0.4109,0.4105,0.411,0.4121,0.4128,0.4114,0.4119,0.413,0.412,0.4132,0.4131,0.4131,0.4061,0.4054,0.4141,0.4141,0.4141,0.4141,0.4141,0.4141,0.4153,0.4176,0.4165,0.4186,0.4179,0.4191,0.4192,0.4192,0.4189,0.4203,0.4209,0.4199,0.4192,0.4196,0.4202,0.4198,0.4201,0.4218,0.421,0.4145,0.4135,0.4126,0.412,0.4219,0.4219,0.4279,0.4279,0.428]},{"header":{"parameterUnit":"m.s-1","parameterCategory":1,"la1":30.2991,"la2":30.254,"lo1":-89.0895,"lo2":-89.0444,"dy":0.0017,"dx":0.0017,"nx":28,"ny":28,"refTime":"2024-11-24T09:00:00:Z","depth":0,"parameterNumber":3,"parameterNumberName":"V-component_of_WINDS"},"data":[0,0,0,0,0,0,0,0,0,0,0,0,0,0,0,0,0,0,0,0,0,0,0,0,0,0,0,0,0,0,0,0,0,0,0,0,0,0,0,0,0,0,0,0,0,0,0,0,0,0,0,0,0,0,0,0,0,0,0.0348,0.0348,0,0.0277,0.0276,0.0275,0.0202,0.0201,0.02,0.0199,0.0126,0.0125,0.0123,0,0,0,0,0,0,0,0,0,0,0,0,0,0.0422,0.0421,0.0348,0.0348,0.0347,0.0277,0.0276,0.0275,0.0202,0.0201,0.02,0.0199,0.0126,0.0125,0.0123,0,0,0,0,0,0,0,0,0,0,0,0,0,0.0374,0.0421,0.0349,0.0302,0.0297,0.0277,0.0276,0.0275,0.0203,0.0201,0.02,0.0198,0.0126,0.0125,0.0123,0.0143,0,0,0.0118,0.0118,0,0,0,0,0,0,0,0,0.0377,0.0372,0.031,0.0305,0.03,0.0247,0.0275,0.0231,0.0203,0.0239,0.0199,0.0198,0.0167,0.0162,0.0152,0.014,0.0137,0.0118,0.0117,0.0117,0.0116,0,0,0,0,0,0,0,0.038,0.0374,0.032,0.0309,0.0303,0.0285,0.0276,0.0266,0.0212,0.0235,0.023,0.0222,0.0164,0.0154,0.015,0.0135,0.0118,0.0117,0.0116,0.0115,0.0136,0.0137,0,0,0,0,0,0,0.0391,0.0377,0.0322,0.0318,0.0335,0.0284,0.0275,0.0265,0.0212,0.0202,0.0224,0.0219,0.0157,0.0152,0.0147,0.0166,0.0117,0.0115,0.0114,0.0134,0.0136,0.0137,0,0,0,0,0,0,0.0393,0.0387,0.0325,0.0346,0.0337,0.0285,0.0274,0.0265,0.0254,0.0203,0.0193,0.0223,0.0156,0.0149,0.0144,0.0163,0.0114,0.0113,0.0132,0.0135,0.0137,0.0206,0,0,0,0,0,0,0.0395,0.0388,0.0395,0.0347,0.0336,0.0325,0.0276,0.0264,0.0252,0.0245,0.02,0.0191,0.0154,0.0147,0.0143,0.016,0.0112,0.013,0.0133,0.0136,0.0202,0.021,0.0218,0,0,0,0,0,0.0398,0.0417,0.0396,0.0389,0.0344,0.0326,0.032,0.0277,0.0253,0.026,0.0227,0.0192,0.0162,0.0147,0.0142,0.0159,0.0129,0.0133,0.0136,0.0198,0.0209,0.0217,0,0,0,0,0,0,0.0469,0.041,0.0386,0.039,0.0364,0.0314,0.0321,0.0289,0.0269,0.0264,0.0211,0.0202,0.0203,0.018,0.0166,0.0175,0.014,0.0143,0.019,0.0199,0.0207,0.0212,0.0111,0,0,0,0,0,0.0485,0.0475,0.0424,0.0433,0.0421,0.0374,0.0364,0.0333,0.0304,0.0292,0.0259,0.0231,0.0215,0.0206,0.0188,0.0198,0.0187,0.0207,0.0215,0.0221,0.0224,0.0227,0.0235,0.0148,0.0148,0.0148,0,0,0.0518,0.0485,0.0482,0.0447,0.0422,0.0413,0.0365,0.0357,0.035,0.0291,0.0285,0.026,0.0225,0.0228,0.0228,0.0209,0.0246,0.0226,0.0231,0.023,0.0232,0.024,0.0247,0.0151,0.015,0.015,0,0,0.0574,0.0548,0.0552,0.0529,0.0493,0.0461,0.0463,0.0417,0.0399,0.0392,0.0347,0.0337,0.0311,0.0288,0.0274,0.0321,0.0288,0.0317,0.0358,0.0361,0.0368,0.0374,0.0391,0.0398,0.0319,0.032,0.032,0,0.062,0.0605,0.0559,0.0554,0.054,0.0486,0.049,0.0469,0.043,0.0421,0.0401,0.0366,0.034,0.0336,0.0348,0.0338,0.0337,0.0322,0.0371,0.0376,0.0381,0.0397,0.0403,0.0323,0.0323,0.0323,0.0322,0,0.0663,0.0653,0.0661,0.0624,0.061,0.061,0.0564,0.0555,0.0526,0.0496,0.049,0.0456,0.043,0.0427,0.0398,0.042,0.0409,0.0381,0.0345,0.0394,0.0408,0.0413,0.0329,0.0327,0.0326,0.0325,0,0,0.0762,0.0699,0.0703,0.0685,0.0642,0.0633,0.063,0.0605,0.0599,0.0574,0.057,0.0549,0.0522,0.0505,0.0473,0.0477,0.0516,0.0447,0.0446,0.0461,0.0537,0.0559,0.0567,0.0494,0.0495,0.0495,0.054,0,0.081,0.0802,0.076,0.0764,0.0754,0.0703,0.07,0.0673,0.0645,0.0633,0.0601,0.0587,0.0553,0.0543,0.0544,0.0511,0.0531,0.0507,0.0489,0.0489,0.05,0.0574,0.0597,0.064,0.0545,0.0546,0.0547,0,0.0865,0.0843,0.0847,0.0803,0.0797,0.0796,0.0769,0.0758,0.0726,0.0705,0.0687,0.0651,0.0645,0.0611,0.0602,0.0587,0.0577,0.056,0.056,0.0557,0.0521,0.0572,0.0653,0.066,0.0555,0.0554,0.0553,0,0.0937,0.0908,0.0906,0.0893,0.0842,0.0842,0.0821,0.0787,0.0775,0.0752,0.0743,0.072,0.0707,0.069,0.0649,0.0628,0.0644,0.0607,0.0626,0.0628,0.0632,0.0632,0.0713,0.0626,0.0626,0.0626,0.0626,0,0.0996,0.1,0.0938,0.0937,0.0939,0.0891,0.0895,0.0869,0.084,0.0832,0.0786,0.078,0.0726,0.0714,0.0681,0.0679,0.0673,0.0656,0.0647,0.066,0.0662,0.0653,0.0649,0.0628,0.0627,0.0627,0.0627,0,0.1076,0.1035,0.1029,0.0982,0.097,0.0974,0.0933,0.0929,0.0899,0.089,0.0885,0.0837,0.082,0.0777,0.0749,0.0727,0.0733,0.0717,0.0744,0.0738,0.076,0.0759,0.0837,0.0845,0.0754,0.0755,0.0756,0,0.1116,0.1118,0.1071,0.1062,0.1043,0.103,0.1018,0.097,0.0959,0.0923,0.0924,0.0903,0.0884,0.086,0.0822,0.08,0.0783,0.0812,0.078,0.0793,0.0784,0.0784,0.0784,0.082,0.0821,0.0822,0.0823,0,0.1192,0.1171,0.1155,0.1131,0.1117,0.1096,0.1073,0.1069,0.1015,0.1005,0.0987,0.0973,0.0944,0.0924,0.0896,0.0874,0.084,0.0833,0.0837,0.085,0.0865,0.0857,0.0763,0.0832,0.0831,0.083,0.083,0.0829,0.1253,0.1252,0.1219,0.1202,0.1179,0.1158,0.1153,0.1121,0.1106,0.1079,0.1052,0.1037,0.1004,0.0964,0.0944,0.0931,0.0913,0.0918,0.0919,0.0921,0.0927,0.0868,0.0926,0.0926,0.0925,0.0925,0.0925,0,0.1326,0.1302,0.1287,0.1255,0.1242,0.1211,0.1183,0.1174,0.1162,0.1134,0.1117,0.1096,0.1077,0.1038,0.1015,0.1012,0.0996,0.1008,0.1007,0.1003,0.0944,0.0944,0.1021,0.1021,0.1021,0.1021,0.1021,0.1021,0.1362,0.1359,0.1335,0.132,0.1295,0.128,0.1267,0.1248,0.1226,0.1205,0.1189,0.1163,0.1131,0.1105,0.1086,0.1075,0.1069,0.1086,0.107,0.1016,0.1007,0.0998,0.0997,0.1085,0.1085,0.1129,0.1129,0.1129]}]]